STARLINK-32669 (62213 NORAD) Tracking and Keplerian Element Data

This shows tracking and keplerian element data for the satellite.

Feedback or suggestion? Click here.




ElementValue
Catalog62213
NameSTARLINK-32669
Epoch Orbit1073
Epoch Day35.22945744
Epoch Year2025
RAAN1.7277
Inclination43.0038
Eccentricity0.0001769
Argument of Perigee276.6777
Mean Anonmoly83.3875
Mean Motion15.32115264
Decay Rate-4.151E-05
L11 62213U 24229X 25035.22945744 -.00004151 00000+0 -12247-3 0 9996
L22 62213 43.0038 1.7277 0001769 276.6777 83.3875 15.32115264 10738



Live tracking and technical data element details for STARLINK-32669 (NORAD 62213). STARLINK-32669 can be tracked NOW for your location showing map with azimuth and elevation plus other details from your city location.







IsCatalogInMostPopularTable: catalog: 62213, numindb: 16
Update: records affected: 1



GetName: 62213 STARLINK-32669

Hit Count: updated at: Sun, 18 May 2025 23:05:22 GMT